Weather History for KCGS - January, 2014

Change the Weather History Date:

Sunday, January 12, 2014

  Actual Average Record
Temperature  
Mean Temperature 42 °F -  
Max Temperature 53 °F 39 °F 68 °F (1975)
Min Temperature 31 °F 22 °F 4 °F (1968)
Degree Days  
Heating Degree Days 23    
Moisture  
Dew Point 32 °F    
Average Humidity 62    
Maximum Humidity 99    
Minimum Humidity 43    
Precipitation  
Precipitation 0.00 in - - ()
Sea Level Pressure  
Sea Level Pressure 29.90 in    
Wind  
Wind Speed 7 mph (WNW)    
Max Wind Speed 15 mph    
Max Gust Speed 25 mph    
Visibility 10 miles    
Events      
Averages and records for this station are not official NWS values.
T = Trace of Precipitation, MM = Missing Value Source: NWS Daily Summary

Daily Weather History Graph

Daily Weather History Graph

Search for Another Location

Airport or City:

Trip Planner

Search our weather history database for the weather conditions in past years. The results will help you decide how hot, cold, wet, or windy it might be!

Date:

Astronomy

Jan. 12, 2014 Rise Set
Actual Time 7:25 AM EST 5:06 PM EST
Civil Twilight 6:56 AM EST 5:35 PM EST
Nautical Twilight 6:23 AM EST 6:08 PM EST
Astronomical Twilight 5:51 AM EST 6:41 PM EST
Moon 2:32 PM EST (1/12) 4:22 AM EST (1/12)
Length of Visible Light 10h 39m
Length of Day
9h 40m
Waxing Gibbous, 89% of the Moon is Illuminated
Jan 12
Waxing Gibbous
Jan 15
Full
Jan 24
Last Quarter
Jan 30
New
Feb 6
First Quarter

Hourly Weather History & Observations

Time (EST) Temp. Windchill Dew Point Humidity Pressure Visibility Wind Dir Wind Speed Gust Speed Precip Events Conditions
12:15 AM 53.6 °F - 43.2 °F 68% 29.55 in 10.0 mi WNW 9.2 mph - N/A   Overcast
12:35 AM 53.1 °F - 41.9 °F 66% 29.56 in 10.0 mi WNW 5.8 mph - N/A   Overcast
12:55 AM 52.3 °F - 40.6 °F 64% 29.58 in 10.0 mi West 8.1 mph - N/A   Scattered Clouds
1:15 AM 51.4 °F - 38.5 °F 61% 29.59 in 10.0 mi WNW 8.1 mph 19.6 mph N/A   Clear
1:35 AM 50.0 °F - 36.5 °F 60% 29.61 in 10.0 mi West 6.9 mph 16.1 mph N/A   Clear
1:55 AM 49.5 °F - 36.0 °F 60% 29.63 in 10.0 mi WNW 5.8 mph - N/A   Clear
2:15 AM 48.9 °F - 35.1 °F 59% 29.64 in 10.0 mi WNW 10.4 mph 18.4 mph N/A   Clear
2:35 AM 48.2 °F - 34.3 °F 59% 29.65 in 10.0 mi NW 3.5 mph - N/A   Scattered Clouds
2:55 AM 47.8 °F - 33.8 °F 58% 29.65 in 10.0 mi West 5.8 mph - N/A   Mostly Cloudy
3:15 AM 47.5 °F - 32.9 °F 57% 29.66 in 10.0 mi WNW 10.4 mph 16.1 mph N/A   Scattered Clouds
3:35 AM 46.9 °F - 32.9 °F 58% 29.67 in 10.0 mi WNW 6.9 mph - N/A   Clear
3:50 AM 46.8 °F - 32.5 °F 58% 29.66 in 10.0 mi WNW 4.6 mph - N/A   Clear
4:15 AM 46.0 °F 43.9 °F 32.5 °F 59% 29.66 in 10.0 mi West 4.6 mph - N/A   Clear
4:35 AM 46.2 °F 42.7 °F 32.4 °F 58% 29.67 in 10.0 mi West 6.9 mph - N/A   Clear
4:55 AM 46.2 °F 42.2 °F 32.2 °F 58% 29.68 in 10.0 mi West 8.1 mph - N/A   Scattered Clouds
5:15 AM 45.5 °F 43.2 °F 32.2 °F 60% 29.69 in 10.0 mi West 4.6 mph - N/A   Scattered Clouds
5:35 AM 45.5 °F 44.2 °F 32.2 °F 60% 29.71 in 10.0 mi West 3.5 mph - N/A   Mostly Cloudy
5:55 AM 45.3 °F 44.0 °F 32.4 °F 61% 29.73 in 10.0 mi West 3.5 mph - N/A   Overcast
6:15 AM 44.6 °F - 32.2 °F 62% 29.75 in 10.0 mi Calm Calm - N/A   Scattered Clouds
6:35 AM 44.6 °F 42.2 °F 32.0 °F 61% 29.77 in 10.0 mi WNW 4.6 mph - N/A   Scattered Clouds
6:55 AM 44.6 °F 39.7 °F 31.8 °F 61% 29.78 in 10.0 mi West 9.2 mph - N/A   Scattered Clouds
7:10 AM 44.6 °F 40.2 °F 31.1 °F 59% 29.80 in 10.0 mi WNW 8.1 mph - N/A   Scattered Clouds
7:40 AM 43.9 °F 38.8 °F 28.6 °F 55% 29.83 in 10.0 mi WNW 9.2 mph - N/A   Clear
8:00 AM 44.4 °F 40.0 °F 28.0 °F 53% 29.84 in 10.0 mi West 8.1 mph 17.3 mph N/A   Clear
8:20 AM 45.1 °F 39.9 °F 28.2 °F 52% 29.86 in 10.0 mi WNW 10.4 mph - N/A   Mostly Cloudy
8:40 AM 45.1 °F 39.1 °F 28.0 °F 51% 29.87 in 10.0 mi West 12.7 mph 23.0 mph N/A   Mostly Cloudy
9:00 AM 44.8 °F 41.6 °F 28.2 °F 52% 29.89 in 10.0 mi West 5.8 mph 16.1 mph N/A   Mostly Cloudy
9:20 AM 45.1 °F 40.3 °F 28.8 °F 53% 29.90 in 10.0 mi WNW 9.2 mph - N/A   Overcast
9:40 AM 45.5 °F 43.2 °F 29.1 °F 53% 29.92 in 10.0 mi NW 4.6 mph - N/A   Overcast
10:00 AM 45.7 °F 43.4 °F 29.1 °F 52% 29.93 in 10.0 mi WNW 4.6 mph - N/A   Overcast
10:20 AM 46.4 °F 42.4 °F 29.7 °F 52% 29.94 in 10.0 mi West 8.1 mph - N/A   Overcast
10:40 AM 46.4 °F 42.4 °F 29.7 °F 52% 29.95 in 10.0 mi WNW 8.1 mph 19.6 mph N/A   Overcast
11:00 AM 46.4 °F 41.5 °F 29.7 °F 52% 29.95 in 10.0 mi WNW 10.4 mph 17.3 mph N/A   Overcast
11:20 AM 46.8 °F - 29.8 °F 52% 29.96 in 10.0 mi WNW 9.2 mph 16.1 mph N/A   Overcast
11:40 AM 48.2 °F - 30.2 °F 50% 29.94 in 10.0 mi NW 13.8 mph 20.7 mph N/A   Overcast
12:00 PM 49.1 °F - 29.8 °F 47% 29.93 in 10.0 mi West 15.0 mph 23.0 mph N/A   Scattered Clouds
12:20 PM 49.6 °F - 30.2 °F 47% 29.94 in 10.0 mi NW 6.9 mph - N/A   Scattered Clouds
12:40 PM 49.1 °F - 29.8 °F 47% 29.94 in 10.0 mi West 15.0 mph 24.2 mph N/A   Scattered Clouds
1:00 PM 50.5 °F - 29.8 °F 45% 29.95 in 10.0 mi West 13.8 mph 25.3 mph N/A   Scattered Clouds
1:20 PM 51.1 °F - 29.8 °F 44% 29.95 in 10.0 mi West 12.7 mph 20.7 mph N/A   Scattered Clouds
1:40 PM 51.1 °F - 29.7 °F 44% 29.96 in 10.0 mi West 8.1 mph 19.6 mph N/A   Scattered Clouds
2:00 PM 51.1 °F - 29.7 °F 44% 29.96 in 10.0 mi West 10.4 mph 21.9 mph N/A   Clear
2:20 PM 51.4 °F - 29.7 °F 43% 29.96 in 10.0 mi West 11.5 mph 19.6 mph N/A   Clear
2:35 PM 52.2 °F - 30.2 °F 43% 29.98 in 10.0 mi WSW 9.2 mph - N/A   Clear
3:00 PM 52.0 °F - 30.4 °F 44% 30.00 in 10.0 mi WNW 9.2 mph - N/A   Clear
3:20 PM 51.8 °F - 29.7 °F 43% 30.00 in 10.0 mi WNW 12.7 mph 16.1 mph N/A   Clear
3:40 PM 51.8 °F - 30.0 °F 43% 30.01 in 10.0 mi West 5.8 mph - N/A   Clear
4:00 PM 51.8 °F - 30.2 °F 44% 30.01 in 10.0 mi West 4.6 mph - N/A   Clear
4:20 PM 51.1 °F - 30.2 °F 45% 30.02 in 10.0 mi NW 6.9 mph - N/A   Clear
4:40 PM 50.0 °F - 30.2 °F 47% 30.02 in 10.0 mi Calm Calm - N/A   Clear
5:00 PM 48.7 °F - 30.7 °F 50% 30.03 in 10.0 mi Calm Calm - N/A   Clear
5:20 PM 47.8 °F - 30.6 °F 51% 30.04 in 10.0 mi Calm Calm - N/A   Clear
5:40 PM 45.5 °F - 31.3 °F 58% 30.05 in 10.0 mi Calm Calm - N/A   Clear
6:00 PM 44.1 °F 42.5 °F 31.8 °F 62% 30.06 in 10.0 mi NNW 3.5 mph - N/A   Clear
6:20 PM 41.4 °F - 32.0 °F 69% 30.06 in 10.0 mi Calm Calm - N/A   Clear
6:35 PM 39.2 °F - 32.5 °F 77% 30.07 in 10.0 mi Calm Calm - N/A   Clear
7:00 PM 37.6 °F - 32.7 °F 83% 30.08 in 10.0 mi Calm Calm - N/A   Clear
7:20 PM 36.9 °F - 33.3 °F 87% 30.09 in 10.0 mi Calm Calm - N/A   Clear
7:40 PM 35.8 °F - 32.2 °F 87% 30.09 in 10.0 mi Calm Calm - N/A   Clear
8:00 PM 35.6 °F - 32.7 °F 89% 30.09 in 10.0 mi Calm Calm - N/A   Clear
8:20 PM 34.5 °F - 32.2 °F 91% 30.10 in 10.0 mi Calm Calm - N/A   Clear
8:40 PM 34.5 °F - 32.0 °F 90% 30.11 in 10.0 mi Calm Calm - N/A   Clear
9:00 PM 33.1 °F - 31.5 °F 94% 30.11 in 10.0 mi Calm Calm - N/A   Clear
9:20 PM 32.9 °F - 32.0 °F 96% 30.11 in 10.0 mi Calm Calm - N/A   Clear
9:40 PM 32.5 °F - 31.8 °F 97% 30.10 in 10.0 mi Calm Calm - N/A   Clear
10:20 PM 31.8 °F - 31.1 °F 97% 30.12 in 10.0 mi Calm Calm - N/A   Clear
10:40 PM 32.0 °F - 31.5 °F 98% 30.12 in 10.0 mi Calm Calm - N/A   Clear
11:00 PM 31.6 °F - 31.1 °F 98% 30.12 in 7.0 mi Calm Calm - N/A   Clear
11:20 PM 31.8 °F - 31.5 °F 99% 30.12 in 7.0 mi Calm Calm - N/A   Clear
11:40 PM 31.3 °F - 30.9 °F 99% 30.12 in 7.0 mi Calm Calm - N/A   Clear